Location: Newark
(23.5328°S, 46.7919°W)
Time: 12:51:21
(UTC+00:00)

ISS - Pass Details

Date: 08 March 2021
Orbit: 418 x 422 km, 51.6° (Epoch: 17 April)

Event Time Altitude Azimuth Distance (km) Brightness Sun altitude
Rises 22:38:12 0° 224° (SW) 2,390 1.1 -16.4°
Reaches altitude 10° 22:40:20 10° 227° (SW) 1,518 0.0 -16.9°
Maximum altitude 22:43:43 65° 309° (NW) 469 -3.5 -17.7°
Enters shadow 22:44:54 36° 18° (NNE) 688 -3.0 -17.9°
